Location: Lafig�re
(44.4503°N, 4.0357°E)
Time: 16:05:02
(UTC+00:00)

Cosmos 1833 Rocket - Pass Details

Date: 24 September 2020
Orbit: 831 x 841 km, 71.0° (Epoch: 20 October)

Event Time Altitude Azimuth Distance (km) Brightness Sun altitude
Rises 18:20:08 0° 344° (NNW) 3,407 6.2 -8.5°
Reaches altitude 10° 18:23:35 10° 5° (N) 2,468 5.2 -9.1°
Maximum altitude 18:27:06 17° 44° (NE) 2,038 4.4 -9.8°
Enters shadow 18:30:11 11° 79° (ENE) 2,372 4.5 -10.3°
